Location: Asheville, NC
(35.6000°N, 82.5500°W)
Time: 10:43:58

Vanguard 1 Rocket - Pass Details

Date: 16 March 2018
Orbit: 655 x 4222 km, 34.3° (Epoch: 20 March)

Event Time Altitude Azimuth Distance (km) Brightness Sun altitude
Rises 22:30:19 0° 279° (W) 4,677 12.0 -34.6°
Reaches altitude 10° 22:32:47 10° 278° (W) 4,011 11.4 -35.0°
Maximum altitude 22:44:15 73° 196° (SSW) 2,748 9.5 -37.1°
Enters shadow 22:47:57 61° 140° (SE) 3,224 9.7 -37.7°
